Date_Time,Julian_Date,Latitude,Longitude,Instrument_Depth,U,V,Speed,Direction
(yyyy-mm-dd hh:mn:ss UTC),(JD),(+ deg. North),(+ deg. East),(m),(cm/s),(cm/s),(cm/s),(deg True)
1987-04-06 19:00:00 UTC,2446892.291667,25.6531,-92.0333,0725,8.74,-6.51,10.8981,126.6806
1987-04-06 19:30:00 UTC,2446892.312500,25.6531,-92.0333,0725,4.82,-4.94,6.9019,135.7044
1987-04-06 20:00:00 UTC,2446892.333333,25.6531,-92.0333,0725,6.09,-8.92,10.8007,145.6773
1987-04-06 20:30:00 UTC,2446892.354167,25.6531,-92.0333,0725,6.65,-9.38,11.4981,144.6651
1987-04-06 21:00:00 UTC,2446892.375000,25.6531,-92.0333,0725,6.48,-9.14,11.2040,144.6644
1987-04-06 21:30:00 UTC,2446892.395833,25.6531,-92.0333,0725,5.75,-8.42,10.1960,145.6709
1987-04-06 22:00:00 UTC,2446892.416667,25.6531,-92.0333,0725,5.44,-7.67,9.4033,144.6536
1987-04-06 22:30:00 UTC,2446892.437500,25.6531,-92.0333,0725,5.36,-7.85,9.5054,145.6746
1987-04-06 23:00:00 UTC,2446892.458333,25.6531,-92.0333,0725,3.26,-6.31,7.1024,152.6773
1987-04-06 23:30:00 UTC,2446892.479167,25.6531,-92.0333,0725,2.62,-10.27,10.5989,165.6884
1987-04-07 00:00:00 UTC,2446892.500000,25.6531,-92.0333,0725,0.82,-2.47,2.6026,161.6347
1987-04-07 00:30:00 UTC,2446892.520833,25.6531,-92.0333,0725,3.04,-11.09,11.4991,164.6706
1987-04-07 01:00:00 UTC,2446892.541667,25.6531,-92.0333,0725,1.80,-7.59,7.8005,166.6585
1987-04-07 01:30:00 UTC,2446892.562500,25.6531,-92.0333,0725,2.29,-6.19,6.6000,159.6980
1987-04-07 02:00:00 UTC,2446892.583333,25.6531,-92.0333,0725,3.55,-10.73,11.3020,161.6933
1987-04-07 02:30:00 UTC,2446892.604167,25.6531,-92.0333,0725,3.31,-8.48,9.1031,158.6778
1987-04-07 03:00:00 UTC,2446892.625000,25.6531,-92.0333,0725,1.89,-7.98,8.2008,166.6755
1987-04-07 03:30:00 UTC,2446892.645833,25.6531,-92.0333,0725,1.84,-7.78,7.9946,166.6938
1987-04-07 04:00:00 UTC,2446892.666667,25.6531,-92.0333,0725,1.27,-8.71,8.8021,171.7042
1987-04-07 04:30:00 UTC,2446892.687500,25.6531,-92.0333,0725,1.45,-9.89,9.9957,171.6591
1987-04-07 05:00:00 UTC,2446892.708333,25.6531,-92.0333,0725,0.72,-7.67,7.7037,174.6372
1987-04-07 05:30:00 UTC,2446892.729167,25.6531,-92.0333,0725,0.19,-8.20,8.2022,178.6726
1987-04-07 06:00:00 UTC,2446892.750000,25.6531,-92.0333,0725,-0.63,-5.36,5.3969,186.7036
1987-04-07 06:30:00 UTC,2446892.770833,25.6531,-92.0333,0725,-0.85,-3.50,3.6017,193.6504
1987-04-07 07:00:00 UTC,2446892.791667,25.6531,-92.0333,0725,-0.20,0.02,0.2010,275.7106
1987-04-07 07:30:00 UTC,2446892.812500,25.6531,-92.0333,0725,1.04,2.92,3.0997,19.6041
1987-04-07 08:00:00 UTC,2446892.833333,25.6531,-92.0333,0725,3.16,6.58,7.2995,25.6523
1987-04-07 08:30:00 UTC,2446892.854167,25.6531,-92.0333,0725,3.01,7.20,7.8039,22.6876
1987-04-07 09:00:00 UTC,2446892.875000,25.6531,-92.0333,0725,6.31,7.89,10.1029,38.6509
1987-04-07 09:30:00 UTC,2446892.895833,25.6531,-92.0333,0725,6.29,8.15,10.2950,37.6602
1987-04-07 10:00:00 UTC,2446892.916667,25.6531,-92.0333,0725,4.81,4.38,6.5054,47.6789
1987-04-07 10:30:00 UTC,2446892.937500,25.6531,-92.0333,0725,6.46,10.47,12.3025,31.6746
1987-04-07 11:00:00 UTC,2446892.958333,25.6531,-92.0333,0725,5.93,8.90,10.6946,33.6752
1987-04-07 11:30:00 UTC,2446892.979167,25.6531,-92.0333,0725,3.38,7.36,8.0990,24.6664
1987-04-07 12:00:00 UTC,2446893.000000,25.6531,-92.0333,0725,2.81,10.01,10.3969,15.6805
1987-04-07 12:30:00 UTC,2446893.020833,25.6531,-92.0333,0725,2.75,9.82,10.1978,15.6444
1987-04-07 13:00:00 UTC,2446893.041667,25.6531,-92.0333,0725,2.03,7.22,7.5000,15.7040
1987-04-07 13:30:00 UTC,2446893.062500,25.6531,-92.0333,0725,1.72,9.14,9.3004,10.6575
1987-04-07 14:00:00 UTC,2446893.083333,25.6531,-92.0333,0725,-3.64,7.68,8.4989,334.6410
1987-04-07 14:30:00 UTC,2446893.104167,25.6531,-92.0333,0725,-6.15,11.90,13.3952,332.6698
1987-04-07 15:00:00 UTC,2446893.125000,25.6531,-92.0333,0725,-3.95,7.98,8.9041,333.6652
1987-04-07 15:30:00 UTC,2446893.145833,25.6531,-92.0333,0725,-5.21,4.97,7.2003,313.6495
1987-04-07 16:00:00 UTC,2446893.166667,25.6531,-92.0333,0725,-6.22,5.34,8.1978,310.6468
1987-04-07 16:30:00 UTC,2446893.187500,25.6531,-92.0333,0725,-4.68,3.75,5.9971,308.7046
1987-04-07 17:00:00 UTC,2446893.208333,25.6531,-92.0333,0725,-3.39,0.89,3.5049,284.7103
1987-04-07 17:30:00 UTC,2446893.229167,25.6531,-92.0333,0725,0.40,-0.03,0.4011,94.2892
1987-04-07 18:00:00 UTC,2446893.250000,25.6531,-92.0333,0725,1.37,-0.31,1.4046,102.7500
1987-04-07 18:30:00 UTC,2446893.270833,25.6531,-92.0333,0725,3.69,-0.90,3.7982,103.7070
1987-04-07 19:00:00 UTC,2446893.291667,25.6531,-92.0333,0725,-1.75,0.96,1.9960,298.7479
1987-04-07 19:30:00 UTC,2446893.312500,25.6531,-92.0333,0725,3.85,-1.69,4.2046,113.6996
1987-04-07 20:00:00 UTC,2446893.333333,25.6531,-92.0333,0725,2.30,-1.21,2.5989,117.7483
1987-04-07 20:30:00 UTC,2446893.354167,25.6531,-92.0333,0725,6.66,-4.78,8.1978,125.6677
1987-04-07 21:00:00 UTC,2446893.375000,25.6531,-92.0333,0725,14.90,-9.55,17.6978,122.6574
1987-04-07 21:30:00 UTC,2446893.395833,25.6531,-92.0333,0725,8.62,-7.15,11.1994,129.6746
1987-04-07 22:00:00 UTC,2446893.416667,25.6531,-92.0333,0725,9.01,-9.23,12.8986,135.6910
1987-04-07 22:30:00 UTC,2446893.437500,25.6531,-92.0333,0725,7.41,-7.86,10.8022,136.6880
1987-04-07 23:00:00 UTC,2446893.458333,25.6531,-92.0333,0725,7.64,-10.39,12.8966,143.6721
1987-04-07 23:30:00 UTC,2446893.479167,25.6531,-92.0333,0725,4.44,-7.60,8.8019,149.7061
1987-04-08 00:00:00 UTC,2446893.500000,25.6531,-92.0333,0725,3.64,-7.35,8.2020,153.6536
1987-04-08 00:30:00 UTC,2446893.520833,25.6531,-92.0333,0725,5.35,-8.45,10.0012,147.6606
1987-04-08 01:00:00 UTC,2446893.541667,25.6531,-92.0333,0725,2.92,-7.88,8.4036,159.6674
1987-04-08 01:30:00 UTC,2446893.562500,25.6531,-92.0333,0725,0.65,-4.45,4.4972,171.6897
1987-04-08 02:00:00 UTC,2446893.583333,25.6531,-92.0333,0725,2.39,-5.83,6.3009,157.7089
1987-04-08 02:30:00 UTC,2446893.604167,25.6531,-92.0333,0725,0.34,-0.83,0.8969,157.7241
1987-04-08 03:00:00 UTC,2446893.625000,25.6531,-92.0333,0725,2.29,-6.19,6.6000,159.6980
1987-04-08 03:30:00 UTC,2446893.645833,25.6531,-92.0333,0725,1.70,-3.95,4.3003,156.7139
1987-04-08 04:00:00 UTC,2446893.666667,25.6531,-92.0333,0725,2.34,-5.42,5.9036,156.6485
1987-04-08 04:30:00 UTC,2446893.687500,25.6531,-92.0333,0725,1.57,-4.75,5.0027,161.7099
1987-04-08 05:00:00 UTC,2446893.708333,25.6531,-92.0333,0725,0.47,-1.42,1.4958,161.6862
1987-04-08 05:30:00 UTC,2446893.729167,25.6531,-92.0333,0725,0.62,-4.25,4.2950,171.7001
1987-04-08 06:00:00 UTC,2446893.750000,25.6531,-92.0333,0725,0.41,-7.09,7.1018,176.6904
1987-04-08 06:30:00 UTC,2446893.770833,25.6531,-92.0333,0725,0.28,-6.99,6.9956,177.7061
1987-04-08 07:00:00 UTC,2446893.791667,25.6531,-92.0333,0725,-0.11,0.99,0.9961,353.6598
1987-04-08 07:30:00 UTC,2446893.812500,25.6531,-92.0333,0725,-0.15,-1.79,1.7963,184.7901
1987-04-08 08:00:00 UTC,2446893.833333,25.6531,-92.0333,0725,0.03,2.80,2.8002,0.6139
1987-04-08 08:30:00 UTC,2446893.854167,25.6531,-92.0333,0725,0.22,4.79,4.7950,2.6297
1987-04-08 09:00:00 UTC,2446893.875000,25.6531,-92.0333,0725,-0.13,3.20,3.2026,357.6736
1987-04-08 09:30:00 UTC,2446893.895833,25.6531,-92.0333,0725,-0.14,3.40,3.4029,357.6421
1987-04-08 10:00:00 UTC,2446893.916667,25.6531,-92.0333,0725,-0.20,-2.39,2.3984,184.7835
1987-04-08 10:30:00 UTC,2446893.937500,25.6531,-92.0333,0725,-0.26,1.78,1.7989,351.6897
1987-04-08 11:00:00 UTC,2446893.958333,25.6531,-92.0333,0725,-0.22,1.99,2.0021,353.6914
1987-04-08 11:30:00 UTC,2446893.979167,25.6531,-92.0333,0725,-0.08,-1.00,1.0032,184.5739
1987-04-08 12:00:00 UTC,2446894.000000,25.6531,-92.0333,0725,-0.24,4.19,4.1969,356.7217
1987-04-08 12:30:00 UTC,2446894.020833,25.6531,-92.0333,0725,-0.58,5.27,5.3018,353.7195
1987-04-08 13:00:00 UTC,2446894.041667,25.6531,-92.0333,0725,-0.30,3.99,4.0013,355.7001
1987-04-08 13:30:00 UTC,2446894.062500,25.6531,-92.0333,0725,-0.45,4.08,4.1047,353.7061
1987-04-08 14:00:00 UTC,2446894.083333,25.6531,-92.0333,0725,-1.76,3.14,3.5996,330.7289
1987-04-08 14:30:00 UTC,2446894.104167,25.6531,-92.0333,0725,-1.19,2.31,2.5985,332.7447
1987-04-08 15:00:00 UTC,2446894.125000,25.6531,-92.0333,0725,-4.98,0.41,4.9968,274.7065
1987-04-08 15:30:00 UTC,2446894.145833,25.6531,-92.0333,0725,-1.97,0.37,2.0044,280.6372
1987-04-08 16:00:00 UTC,2446894.166667,25.6531,-92.0333,0725,0.37,0.15,0.3992,67.9321
1987-04-08 16:30:00 UTC,2446894.187500,25.6531,-92.0333,0725,-1.40,0.53,1.4970,290.7352
1987-04-08 17:00:00 UTC,2446894.208333,25.6531,-92.0333,0725,3.73,-0.70,3.7951,100.6289
1987-04-08 17:30:00 UTC,2446894.229167,25.6531,-92.0333,0725,1.37,-0.31,1.4046,102.7500
1987-04-08 18:00:00 UTC,2446894.250000,25.6531,-92.0333,0725,4.69,-1.41,4.8974,106.7329
1987-04-08 18:30:00 UTC,2446894.270833,25.6531,-92.0333,0725,6.59,-2.89,7.1958,113.6795
1987-04-08 19:00:00 UTC,2446894.291667,25.6531,-92.0333,0725,3.84,-1.93,4.2977,116.6843
1987-04-08 19:30:00 UTC,2446894.312500,25.6531,-92.0333,0725,0.60,-0.05,0.6021,94.7636
1987-04-08 20:00:00 UTC,2446894.333333,25.6531,-92.0333,0725,-2.86,1.84,3.4008,302.7555
1987-04-08 20:30:00 UTC,2446894.354167,25.6531,-92.0333,0725,5.50,-3.26,6.3936,120.6564
1987-04-08 21:00:00 UTC,2446894.375000,25.6531,-92.0333,0725,3.52,-1.69,3.9047,115.6463
1987-04-08 21:30:00 UTC,2446894.395833,25.6531,-92.0333,0725,4.61,-2.41,5.2019,117.5995
1987-04-08 22:00:00 UTC,2446894.416667,25.6531,-92.0333,0725,5.30,-4.09,6.6946,127.6573
1987-04-08 22:30:00 UTC,2446894.437500,25.6531,-92.0333,0725,0.98,-0.49,1.0957,116.5650
1987-04-08 23:00:00 UTC,2446894.458333,25.6531,-92.0333,0725,9.06,-6.75,11.2981,126.6873
1987-04-08 23:30:00 UTC,2446894.479167,25.6531,-92.0333,0725,2.97,-2.83,4.1024,133.6173
1987-04-09 00:00:00 UTC,2446894.500000,25.6531,-92.0333,0725,4.91,-3.79,6.2026,127.6643
1987-04-09 00:30:00 UTC,2446894.520833,25.6531,-92.0333,0725,4.68,-3.75,5.9971,128.7046
1987-04-09 01:00:00 UTC,2446894.541667,25.6531,-92.0333,0725,6.26,-4.66,7.8040,126.6643
1987-04-09 01:30:00 UTC,2446894.562500,25.6531,-92.0333,0725,2.75,-2.62,3.7983,133.6132
1987-04-09 02:00:00 UTC,2446894.583333,25.6531,-92.0333,0725,0.97,-0.70,1.1962,125.8161
1987-04-09 02:30:00 UTC,2446894.604167,25.6531,-92.0333,0725,-0.53,0.84,0.9932,327.7500
1987-04-09 03:00:00 UTC,2446894.625000,25.6531,-92.0333,0725,1.42,-2.53,2.9013,150.6960
1987-04-09 03:30:00 UTC,2446894.645833,25.6531,-92.0333,0725,-0.79,2.26,2.3941,340.7325
1987-04-09 04:00:00 UTC,2446894.666667,25.6531,-92.0333,0725,0.03,0.40,0.4011,4.2892
1987-04-09 04:30:00 UTC,2446894.687500,25.6531,-92.0333,0725,1.57,-5.37,5.5948,163.7029
1987-04-09 05:00:00 UTC,2446894.708333,25.6531,-92.0333,0725,1.21,-4.75,4.9017,165.7086
1987-04-09 05:30:00 UTC,2446894.729167,25.6531,-92.0333,0725,0.27,-3.59,3.6001,175.6989
1987-04-09 06:00:00 UTC,2446894.750000,25.6531,-92.0333,0725,0.00,0.00,0.0000,0.0000
1987-04-09 06:30:00 UTC,2446894.770833,25.6531,-92.0333,0725,-0.30,1.26,1.2952,346.6075
1987-04-09 07:00:00 UTC,2446894.791667,25.6531,-92.0333,0725,0.15,-0.37,0.3992,157.9321
1987-04-09 07:30:00 UTC,2446894.812500,25.6531,-92.0333,0725,-0.05,-0.60,0.6021,184.7637
1987-04-09 08:00:00 UTC,2446894.833333,25.6531,-92.0333,0725,-0.04,1.80,1.8004,358.7270
1987-04-09 08:30:00 UTC,2446894.854167,25.6531,-92.0333,0725,-0.55,-1.72,1.8058,197.7326
1987-04-09 09:00:00 UTC,2446894.875000,25.6531,-92.0333,0725,-0.20,0.02,0.2010,275.7106
1987-04-09 09:30:00 UTC,2446894.895833,25.6531,-92.0333,0725,0.05,0.60,0.6021,4.7636
1987-04-09 10:00:00 UTC,2446894.916667,25.6531,-92.0333,0725,-0.21,-0.34,0.3996,211.7014
1987-04-09 10:30:00 UTC,2446894.937500,25.6531,-92.0333,0725,0.37,2.17,2.2013,9.6763
1987-04-09 11:00:00 UTC,2446894.958333,25.6531,-92.0333,0725,0.16,1.99,1.9964,4.5968
1987-04-09 11:30:00 UTC,2446894.979167,25.6531,-92.0333,0725,-0.10,-1.20,1.2042,184.7637
1987-04-09 12:00:00 UTC,2446895.000000,25.6531,-92.0333,0725,0.49,-1.20,1.2962,157.7882
1987-04-09 12:30:00 UTC,2446895.020833,25.6531,-92.0333,0725,-0.48,1.63,1.6992,343.5914
1987-04-09 13:00:00 UTC,2446895.041667,25.6531,-92.0333,0725,-0.68,1.45,1.6015,334.8750
1987-04-09 13:30:00 UTC,2446895.062500,25.6531,-92.0333,0725,0.34,-0.21,0.3996,121.7014
1987-04-09 14:00:00 UTC,2446895.083333,25.6531,-92.0333,0725,-2.26,1.81,2.8955,308.6907
1987-04-09 14:30:00 UTC,2446895.104167,25.6531,-92.0333,0725,-1.29,1.11,1.7018,310.7108
1987-04-09 15:00:00 UTC,2446895.125000,25.6531,-92.0333,0725,-0.39,0.46,0.6031,319.7079
1987-04-09 15:30:00 UTC,2446895.145833,25.6531,-92.0333,0725,-0.02,-0.20,0.2010,185.7106
1987-04-09 16:00:00 UTC,2446895.166667,25.6531,-92.0333,0725,1.47,-1.50,2.1002,135.5787
1987-04-09 16:30:00 UTC,2446895.187500,25.6531,-92.0333,0725,1.88,-1.80,2.6028,133.7546
1987-04-09 17:00:00 UTC,2446895.208333,25.6531,-92.0333,0725,3.16,-3.47,4.6932,137.6770
1987-04-09 17:30:00 UTC,2446895.229167,25.6531,-92.0333,0725,1.62,-1.91,2.5045,139.6965
1987-04-09 18:00:00 UTC,2446895.250000,25.6531,-92.0333,0725,-0.02,-0.20,0.2010,185.7106
1987-04-09 18:30:00 UTC,2446895.270833,25.6531,-92.0333,0725,1.35,-3.12,3.3995,156.6022
1987-04-09 19:00:00 UTC,2446895.291667,25.6531,-92.0333,0725,1.49,-1.75,2.2984,139.5880
1987-04-09 19:30:00 UTC,2446895.312500,25.6531,-92.0333,0725,2.73,-3.45,4.3995,141.6453
1987-04-09 20:00:00 UTC,2446895.333333,25.6531,-92.0333,0725,1.24,-1.69,2.0961,143.7315
1987-04-09 20:30:00 UTC,2446895.354167,25.6531,-92.0333,0725,1.14,-1.12,1.5981,134.4930
1987-04-09 21:00:00 UTC,2446895.375000,25.6531,-92.0333,0725,0.75,-0.66,0.9990,131.3478
1987-04-09 21:30:00 UTC,2446895.395833,25.6531,-92.0333,0725,-0.19,0.23,0.2983,320.4403
1987-04-09 22:00:00 UTC,2446895.416667,25.6531,-92.0333,0725,-2.73,3.45,4.3995,321.6453
1987-04-09 22:30:00 UTC,2446895.437500,25.6531,-92.0333,0725,0.93,-1.31,1.6065,144.6281
1987-04-09 23:00:00 UTC,2446895.458333,25.6531,-92.0333,0725,1.76,-3.14,3.5996,150.7289
1987-04-09 23:30:00 UTC,2446895.479167,25.6531,-92.0333,0725,0.91,-1.07,1.4046,139.6199
1987-04-10 00:00:00 UTC,2446895.500000,25.6531,-92.0333,0725,0.39,-0.46,0.6031,139.7079
1987-04-10 00:30:00 UTC,2446895.520833,25.6531,-92.0333,0725,3.16,-3.47,4.6932,137.6770
1987-04-10 01:00:00 UTC,2446895.541667,25.6531,-92.0333,0725,-0.15,0.37,0.3992,337.9321
1987-04-10 01:30:00 UTC,2446895.562500,25.6531,-92.0333,0725,0.00,0.00,0.0000,0.0000
1987-04-10 02:00:00 UTC,2446895.583333,25.6531,-92.0333,0725,-0.15,0.37,0.3992,337.9321
1987-04-10 02:30:00 UTC,2446895.604167,25.6531,-92.0333,0725,3.22,-4.08,5.1976,141.7189
1987-04-10 03:00:00 UTC,2446895.625000,25.6531,-92.0333,0725,3.00,-3.08,4.2996,135.7538
1987-04-10 03:30:00 UTC,2446895.645833,25.6531,-92.0333,0725,0.55,-0.44,0.7043,128.6598
1987-04-10 04:00:00 UTC,2446895.666667,25.6531,-92.0333,0725,1.88,-1.80,2.6028,133.7546
1987-04-10 04:30:00 UTC,2446895.687500,25.6531,-92.0333,0725,2.20,-2.18,3.0972,134.7384
1987-04-10 05:00:00 UTC,2446895.708333,25.6531,-92.0333,0725,1.97,-2.77,3.3991,144.5799
1987-04-10 05:30:00 UTC,2446895.729167,25.6531,-92.0333,0725,0.02,0.20,0.2010,5.7106
1987-04-10 06:00:00 UTC,2446895.750000,25.6531,-92.0333,0725,0.93,-1.31,1.6065,144.6281
1987-04-10 06:30:00 UTC,2446895.770833,25.6531,-92.0333,0725,2.11,-3.75,4.3029,150.6350
1987-04-10 07:00:00 UTC,2446895.791667,25.6531,-92.0333,0725,3.78,-5.53,6.6985,145.6456
1987-04-10 07:30:00 UTC,2446895.812500,25.6531,-92.0333,0725,4.45,-8.62,9.7009,152.6953
1987-04-10 08:00:00 UTC,2446895.833333,25.6531,-92.0333,0725,1.26,-1.92,2.2965,146.7251
1987-04-10 08:30:00 UTC,2446895.854167,25.6531,-92.0333,0725,3.15,-7.68,8.3009,157.6987
1987-04-10 09:00:00 UTC,2446895.875000,25.6531,-92.0333,0725,1.10,-3.53,3.6974,162.6922
1987-04-10 09:30:00 UTC,2446895.895833,25.6531,-92.0333,0725,1.94,-8.17,8.3972,166.6423
1987-04-10 10:00:00 UTC,2446895.916667,25.6531,-92.0333,0725,1.22,-6.69,6.8003,169.6650
1987-04-10 10:30:00 UTC,2446895.937500,25.6531,-92.0333,0725,-0.22,-7.60,7.6032,181.6581
1987-04-10 11:00:00 UTC,2446895.958333,25.6531,-92.0333,0725,-0.27,-5.79,5.7963,182.6699
1987-04-10 11:30:00 UTC,2446895.979167,25.6531,-92.0333,0725,-0.51,-1.52,1.6033,198.5480
1987-04-10 12:00:00 UTC,2446896.000000,25.6531,-92.0333,0725,-0.70,-1.33,1.5030,207.7585
1987-04-10 12:30:00 UTC,2446896.020833,25.6531,-92.0333,0725,-1.69,-3.52,3.9047,205.6463
1987-04-10 13:00:00 UTC,2446896.041667,25.6531,-92.0333,0725,-3.12,-3.90,4.9944,218.6598
1987-04-10 13:30:00 UTC,2446896.062500,25.6531,-92.0333,0725,-1.30,-1.10,1.7029,229.7637
